This is the latest recevied weather packets stored in our database for station/object KO6LQJ. If no packets are shown the sender has not sent any weather packets the latest 10 day(s).
| Time | Temp. | Humidity | Pressure | Rain* | Wind** | Luminosity | Snow |
|---|---|---|---|---|---|---|---|
| 1777848702 | 17.78° C | 58% | 1014.9 hPa | 0 mm | - | 118 W/m² | - |
| 1777848400 | 17.78° C | 59% | 1015.1 hPa | 0 mm | - | 113 W/m² | - |
| 1777848097 | 17.78° C | 59% | 1015.1 hPa | 0 mm | - | 108 W/m² | - |
| 1777847795 | 17.78° C | 59% | 1015.3 hPa | 0 mm | - | 112 W/m² | - |
| 1777847491 | 17.78° C | 60% | 1015.2 hPa | 0 mm | - | 118 W/m² | - |
| 1777847189 | 17.78° C | 61% | 1015.2 hPa | 0 mm | - | 143 W/m² | - |
| 1777846886 | 17.22° C | 61% | 1015.3 hPa | 0 mm | - | 154 W/m² | - |
| 1777846585 | 17.22° C | 61% | 1015.5 hPa | 0 mm | - | 142 W/m² | - |
| 1777846282 | 17.22° C | 62% | 1015.5 hPa | 0 mm | - | 144 W/m² | - |
| 1777845979 | 17.22° C | 62% | 1015.6 hPa | 0 mm | - | 113 W/m² | - |
| 1777845675 | 17.22° C | 62% | 1015.4 hPa | 0 mm | - | 114 W/m² | - |
| 1777845372 | 16.67° C | 64% | 1015.7 hPa | 0 mm | - | 119 W/m² | - |
| 1777845068 | 16.67° C | 64% | 1015.5 hPa | 0 mm | - | 101 W/m² | - |
| 1777844768 | 16.67° C | 65% | 1015.4 hPa | 0 mm | - | 104 W/m² | - |
| 1777844463 | 16.67° C | 65% | 1015.8 hPa | 0 mm | - | 98 W/m² | - |
| 1777844162 | 16.67° C | 66% | 1015.7 hPa | 0 mm | - | 93 W/m² | - |
| 1777843858 | 16.11° C | 65% | 1015.7 hPa | 0 mm | - | 88 W/m² | - |
| 1777843556 | 16.11° C | 66% | 1015.9 hPa | 0 mm | - | 82 W/m² | - |
| 1777843253 | 16.11° C | 67% | 1015.8 hPa | 0 mm | - | 73 W/m² | - |
| 1777842950 | 16.11° C | 68% | 1015.8 hPa | 0 mm | - | 64 W/m² | - |
| 1777842645 | 16.11° C | 68% | 1015.7 hPa | 0 mm | - | 55 W/m² | - |
| 1777842343 | 16.67° C | 68% | 1015.9 hPa | 0 mm | - | 60 W/m² | - |
| 1777842038 | 16.67° C | 68% | 1015.7 hPa | 0 mm | - | 61 W/m² | - |
| 1777841735 | 16.67° C | 69% | 1015.6 hPa | 0 mm | - | 70 W/m² | - |
| 1777841432 | 16.67° C | 69% | 1015.5 hPa | 0 mm | - | 80 W/m² | - |
* Rain latest hour (hover to see other rain measurements)
** Current wind speed in m/s (hover to see current wind gust speed)